DW8501 Madrid ES current weather conditions

sailwx.info

Wind from 229 at 6 knots gusting 21

Air temperature 34.4° C
Dewpoint 3.1° C

Last reported at 2017-Jun-23 15:05 UTC.
Time now 2017-Jun-23 15:28 UTC

Location: N 40°27' W 003°35'.
View on Google Maps.

See reports from other nearby stations

  
Tides and Currents Weather Stations Pressure Air Temp Water Temp Dewpoint Dewpoint Depression Visibility Wind Speed Wind Dir Waves Ship Positions
date/time (UTC)wind fromknots sea level pressurealtimeterstation pressurevisibilityair tempwater tempwave heightnotes
2017-Jun-23 15:10 227 16 gusting 21 35.0
2017-Jun-23 15:05 229 6 gusting 21 34.4
2017-Jun-23 15:00 243 9 gusting 17 35.0
2017-Jun-23 14:55 263 13 gusting 18 34.4
2017-Jun-23 14:50 286 11 gusting 19 34.4
2017-Jun-23 14:45 270 13 gusting 23 34.4
2017-Jun-23 14:40 255 13 gusting 23 33.9
2017-Jun-23 14:35 262 16 gusting 21 34.4
2017-Jun-23 14:30 261 15 gusting 21 34.4
2017-Jun-23 14:25 262 13 gusting 25 34.4
2017-Jun-23 14:20 259 7 gusting 25 34.4
2017-Jun-23 14:15 279 14 gusting 20 33.9
2017-Jun-23 14:10 287 12 gusting 19 33.9
2017-Jun-23 14:05 242 14 gusting 19 33.9
2017-Jun-23 14:00 237 7 gusting 20 33.3
2017-Jun-23 13:55 259 14 gusting 20 33.9
2017-Jun-23 13:50 272 9 gusting 19 33.3
2017-Jun-23 13:45 272 9 gusting 24 33.3
2017-Jun-23 13:40 291 18 gusting 24 33.3
2017-Jun-23 13:35 297 14 gusting 19 33.9
2017-Jun-23 13:30 254 8 gusting 23 33.3
2017-Jun-23 13:25 260 13 gusting 23 33.3
2017-Jun-23 13:20 285 9 gusting 23 33.3
2017-Jun-23 13:15 256 6 gusting 23 32.8
2017-Jun-23 13:10 261 18 gusting 21 32.8
2017-Jun-23 13:05 267 13 gusting 23 33.3
2017-Jun-23 13:00 236 17 gusting 23 32.8
2017-Jun-23 12:55 237 6 gusting 21 32.8
2017-Jun-23 12:50 247 13 gusting 26 32.8
2017-Jun-23 12:45 270 10 gusting 26 32.8
2017-Jun-23 12:40 288 14 gusting 20 32.8
2017-Jun-23 12:35 268 8 gusting 19 32.8
2017-Jun-23 12:30 260 12 gusting 22 32.2
2017-Jun-23 12:25 252 9 gusting 22 32.2
2017-Jun-23 12:20 256 11 gusting 19 32.2
2017-Jun-23 12:15 264 11 gusting 20 32.2
2017-Jun-23 12:10 245 16 gusting 20 32.8
2017-Jun-23 12:05 239 16 gusting 19 32.2
2017-Jun-23 12:00 259 13 gusting 19 32.8
2017-Jun-23 11:55 268 13 gusting 19 32.2
2017-Jun-23 11:50 256 12 gusting 19 32.2
2017-Jun-23 11:45 268 8 gusting 22 31.7
2017-Jun-23 11:40 286 13 gusting 22 32.2
2017-Jun-23 11:35 273 6 gusting 19 32.2
2017-Jun-23 11:30 271 10 gusting 19 32.2
2017-Jun-23 11:25 262 8 gusting 23 31.7
2017-Jun-23 11:20 251 9 gusting 23 31.7
2017-Jun-23 11:15 254 6 gusting 19 31.7
2017-Jun-23 11:10 252 6 gusting 19 31.7
2017-Jun-23 11:05 251 10 gusting 18 31.7
2017-Jun-23 11:00 253 10 gusting 19 31.7
2017-Jun-23 10:55 251 14 gusting 19 31.7
2017-Jun-23 10:50 262 13 gusting 18 31.7
2017-Jun-23 10:45 235 6 gusting 18 31.7
2017-Jun-23 10:40 225 11 gusting 17 31.7
2017-Jun-23 10:35 283 7 gusting 18 31.7
2017-Jun-23 10:30 302 10 gusting 18 31.1
2017-Jun-23 10:25 303 13 gusting 18 31.1
2017-Jun-23 10:20 262 11 gusting 16 31.1
2017-Jun-23 10:15 222 8 gusting 16 31.7
2017-Jun-23 10:10 241 8 gusting 19 31.7
2017-Jun-23 10:05 268 10 gusting 19 31.1
2017-Jun-23 10:00 264 10 gusting 15 31.1
2017-Jun-23 09:55 254 9 gusting 15 31.1
2017-Jun-23 09:50 277 13 gusting 17 30.6
2017-Jun-23 09:45 282 13 gusting 19 30.6
2017-Jun-23 09:40 269 10 gusting 19 30.6
2017-Jun-23 09:35 273 14 gusting 18 30.6
2017-Jun-23 09:30 286 6 gusting 13 31.1
2017-Jun-23 09:25 280 6 gusting 13 31.1
2017-Jun-23 09:20 268 6 gusting 11 31.1
2017-Jun-23 09:15 258 3 gusting 14 30.6
2017-Jun-23 09:10 261 6 gusting 14 30.0
2017-Jun-23 09:05 259 6 gusting 13 30.6
2017-Jun-23 09:00 253 6 gusting 13 30.0
2017-Jun-23 08:55 261 6 gusting 9 30.6
2017-Jun-23 08:50 286 4 gusting 9 30.0
2017-Jun-23 08:45 289 5 gusting 10 29.4
2017-Jun-23 08:40 272 6 gusting 10 28.9
2017-Jun-23 08:35 252 6 gusting 10 28.9
2017-Jun-23 08:30 259 6 gusting 9 28.9
2017-Jun-23 08:25 268 4 gusting 7 28.9
2017-Jun-23 08:20 253 6 gusting 10 28.9
2017-Jun-23 08:15 242 4 gusting 10 28.3
2017-Jun-23 08:10 252 6 gusting 9 28.3
2017-Jun-23 08:05 266 6 gusting 9 27.8
2017-Jun-23 08:00 245 6 gusting 12 27.8
2017-Jun-23 07:55 224 6 gusting 12 27.8
2017-Jun-23 07:50 197 3 gusting 8 27.8
2017-Jun-23 07:45 181 6 gusting 8 27.8
2017-Jun-23 07:40 187 4 gusting 7 28.3
2017-Jun-23 07:35 171 3 gusting 6 28.9
2017-Jun-23 07:30 169 0 gusting 6 28.3
2017-Jun-23 07:25 147 3 gusting 6 28.3
2017-Jun-23 07:20 138 3 gusting 6 28.3
2017-Jun-23 07:15 148 3 gusting 5 28.3
2017-Jun-23 07:10 188 0 gusting 5 28.3
2017-Jun-23 07:05 190 3 gusting 6 27.8
2017-Jun-23 07:00 179 3 gusting 6 27.2
2017-Jun-23 06:55 181 1 gusting 5 27.8
2017-Jun-23 06:50 169 2 gusting 5 27.2
2017-Jun-23 06:45 172 2 gusting 6 27.2
2017-Jun-23 06:40 196 3 gusting 6 26.7
2017-Jun-23 06:35 200 4 gusting 6 27.8
2017-Jun-23 06:30 187 3 gusting 5 27.8
2017-Jun-23 06:25 219 2 gusting 3 27.8
2017-Jun-23 06:20 235 0 gusting 4 27.2
2017-Jun-23 06:15 243 1 gusting 6 26.7
2017-Jun-23 06:10 255 3 gusting 6 26.1
2017-Jun-23 06:05 258 3 gusting 6 26.1
2017-Jun-23 06:00 269 3 gusting 6 26.1
2017-Jun-23 05:55 283 3 gusting 6 26.1
2017-Jun-23 05:50 274 5 gusting 6 26.1
2017-Jun-23 05:45 259 1 gusting 5 25.6
2017-Jun-23 05:40 247 2 gusting 6 25.6
2017-Jun-23 05:35 249 3 gusting 6 25.0
2017-Jun-23 05:30 237 5 gusting 6 24.4
2017-Jun-23 05:25 210 4 gusting 6 24.4
2017-Jun-23 05:20 186 2 gusting 6 24.4
2017-Jun-23 05:15 189 3 gusting 6 24.4
2017-Jun-23 05:10 199 3 gusting 6 24.4
2017-Jun-23 05:05 222 2 gusting 5 24.4
2017-Jun-23 05:00 233 3 gusting 5 24.4
2017-Jun-23 04:55 232 2 gusting 5 24.4
2017-Jun-23 04:50 24.4
2017-Jun-23 04:45 24.4
2017-Jun-23 04:40 240 1 gusting 6 24.4
2017-Jun-23 04:35 225 3 gusting 8 24.4
2017-Jun-23 04:30 221 6 gusting 8 24.4
2017-Jun-23 04:25 207 5 gusting 6 24.4
2017-Jun-23 04:20 184 2 gusting 6 23.9
2017-Jun-23 04:15 169 3 gusting 6 23.9
2017-Jun-23 04:10 170 3 gusting 6 23.9
2017-Jun-23 04:05 173 2 gusting 3 24.4
2017-Jun-23 04:00 172 1 gusting 3 25.0
2017-Jun-23 03:55 25.6
2017-Jun-23 03:50 274 1 gusting 3 25.6
2017-Jun-23 03:45 255 2 gusting 3 25.6
2017-Jun-23 03:40 225 1 gusting 3 25.6
2017-Jun-23 03:35 226 1 gusting 3 25.6
2017-Jun-23 03:30 232 1 gusting 3 25.6
2017-Jun-23 03:25 226 1 gusting 5 25.0
2017-Jun-23 03:20 219 1 gusting 6 25.6
2017-Jun-23 03:15 208 3 gusting 6 25.6
2017-Jun-23 03:10 209 4 gusting 6 26.1
2017-Jun-23 03:05 250 2 gusting 6 26.7
2017-Jun-23 03:00 263 5 gusting 6 26.7
2017-Jun-23 02:55 258 3 gusting 6 27.2
2017-Jun-23 02:50 278 4 gusting 7 27.2
2017-Jun-23 02:45 293 4 gusting 8 27.2
2017-Jun-23 02:40 282 4 gusting 8 27.8
2017-Jun-23 02:35 280 3 gusting 10 27.8
2017-Jun-23 02:30 277 6 gusting 10 27.8
2017-Jun-23 02:25 275 7 gusting 10 27.8
2017-Jun-23 02:20 270 6 gusting 9 27.8
2017-Jun-23 02:15 269 6 gusting 8 27.8
2017-Jun-23 02:10 290 5 gusting 6 27.2
2017-Jun-23 02:05 321 1 gusting 3 26.7
2017-Jun-23 02:00 207 1 gusting 5 26.7
2017-Jun-23 01:55 190 0 gusting 5 26.7
2017-Jun-23 01:50 186 3 gusting 5 26.7
2017-Jun-23 01:45 190 2 gusting 4 27.2
2017-Jun-23 01:40 190 3 gusting 4 27.2
2017-Jun-23 01:35 194 1 gusting 3 27.2
2017-Jun-23 01:30 210 2 gusting 3 27.2
2017-Jun-23 01:25 221 1 gusting 2 27.8
2017-Jun-23 01:20 224 1 gusting 1 27.8
2017-Jun-23 01:15 27.8
2017-Jun-23 01:10 28.3
2017-Jun-23 01:05 090 1 gusting 5 28.3
2017-Jun-23 01:00 069 1 gusting 5 28.3
2017-Jun-23 00:55 355 1 gusting 2 28.9
2017-Jun-23 00:50 28.9
2017-Jun-23 00:45 29.4
2017-Jun-23 00:40 081 1 gusting 3 29.4
2017-Jun-23 00:35 068 1 gusting 3 29.4
2017-Jun-23 00:30 060 2 gusting 3 30.0
2017-Jun-22 23:25 294 7 gusting 11 31.1
2017-Jun-22 23:20 283 6 gusting 11 31.1
2017-Jun-22 23:15 286 6 gusting 11 31.1
2017-Jun-22 23:10 292 4 gusting 13 31.1
2017-Jun-22 23:05 283 5 gusting 13 31.1
2017-Jun-22 23:00 283 6 gusting 13 31.1
2017-Jun-22 22:55 295 4 gusting 13 31.1
2017-Jun-22 22:50 291 6 gusting 9 31.1
2017-Jun-22 22:45 283 5 gusting 9 31.1
2017-Jun-22 22:40 277 5 gusting 9 31.1
2017-Jun-22 22:35 284 6 gusting 9 31.1
2017-Jun-22 22:30 303 3 gusting 8 31.1
2017-Jun-22 22:25 297 3 gusting 11 31.1
2017-Jun-22 22:20 291 4 gusting 11 31.1
2017-Jun-22 22:15 290 5 gusting 7 31.1
2017-Jun-22 22:10 303 5 gusting 7 31.7
2017-Jun-22 22:05 301 6 gusting 9 31.7
2017-Jun-22 22:00 280 6 gusting 10 31.7
2017-Jun-22 21:55 283 6 gusting 10 31.7
2017-Jun-22 21:50 286 6 gusting 10 31.7
2017-Jun-22 21:45 273 6 gusting 11 31.7
2017-Jun-22 21:40 282 6 gusting 13 31.7
2017-Jun-22 21:35 282 7 gusting 13 31.7
2017-Jun-22 21:30 272 6 gusting 13 31.7
2017-Jun-22 21:25 274 5 gusting 14 32.2
2017-Jun-22 21:20 278 6 gusting 14 32.2
2017-Jun-22 21:15 298 8 gusting 12 32.2
2017-Jun-22 21:10 312 6 gusting 13 32.2
2017-Jun-22 21:05 303 7 gusting 14 32.2
2017-Jun-22 21:00 294 8 gusting 17 32.2
2017-Jun-22 20:55 282 9 gusting 17 32.2
2017-Jun-22 20:50 294 6 gusting 14 32.2
2017-Jun-22 20:45 315 6 gusting 19 32.2
2017-Jun-22 20:40 306 8 gusting 19 32.8
2017-Jun-22 20:35 289 13 gusting 19 32.8
2017-Jun-22 20:30 293 12 gusting 15 32.8
2017-Jun-22 20:25 302 6 gusting 18 32.8
2017-Jun-22 20:20 295 14 gusting 18 33.3
2017-Jun-22 20:15 296 7 gusting 15 33.3
2017-Jun-22 20:10 283 10 gusting 15 33.3
2017-Jun-22 20:05 274 9 gusting 19 33.3
2017-Jun-22 20:00 291 13 gusting 19 33.9
2017-Jun-22 19:55 298 7 gusting 13 33.9
2017-Jun-22 19:50 289 4 gusting 13 33.9
2017-Jun-22 19:45 276 5 gusting 14 33.9
2017-Jun-22 19:40 274 6 gusting 14 34.4
2017-Jun-22 19:35 266 9 gusting 14 34.4
2017-Jun-22 19:30 270 3 gusting 9 34.4
2017-Jun-22 19:25 296 4 gusting 7 35.0
2017-Jun-22 19:20 321 3 gusting 6 35.0
2017-Jun-22 19:15 313 2 gusting 8 35.0
2017-Jun-22 19:10 297 3 gusting 11 35.0
2017-Jun-22 19:05 296 3 gusting 13 35.0
2017-Jun-22 19:00 272 7 gusting 13 35.0
2017-Jun-22 18:55 243 6 gusting 9 35.6
2017-Jun-22 18:50 272 6 gusting 13 35.6
2017-Jun-22 18:45 284 6 gusting 13 35.6
2017-Jun-22 18:40 276 5 gusting 9 35.6
2017-Jun-22 18:35 299 3 gusting 9 35.6
2017-Jun-22 18:30 295 5 gusting 12 35.6
2017-Jun-22 18:25 285 7 gusting 13 35.6
2017-Jun-22 18:20 276 6 gusting 13 35.6
2017-Jun-22 18:15 268 11 gusting 13 35.6
2017-Jun-22 18:10 297 5 gusting 10 36.1
2017-Jun-22 18:05 294 3 gusting 13 35.6
2017-Jun-22 18:00 267 6 gusting 14 35.6
2017-Jun-22 17:55 259 6 gusting 14 36.1
2017-Jun-22 17:50 274 6 gusting 10 36.1
2017-Jun-22 17:45 270 6 gusting 10 36.1
2017-Jun-22 17:40 250 6 gusting 15 36.1
2017-Jun-22 17:35 245 6 gusting 15 36.1
2017-Jun-22 17:30 253 13 gusting 15 36.1
2017-Jun-22 17:25 263 13 gusting 15 36.7
2017-Jun-22 17:20 245 5 gusting 10 36.7
2017-Jun-22 17:15 253 8 gusting 10 37.2
2017-Jun-22 17:10 286 2 gusting 6 37.8
2017-Jun-22 17:05 272 1 gusting 12 37.2
2017-Jun-22 17:00 280 1 gusting 13 36.1
2017-Jun-22 16:55 289 9 gusting 13 36.7
2017-Jun-22 16:50 292 2 gusting 10 36.7
2017-Jun-22 16:45 279 6 gusting 12 36.7
2017-Jun-22 16:40 279 6 gusting 18 36.7
2017-Jun-22 16:35 277 9 gusting 18 36.7
2017-Jun-22 16:30 248 7 gusting 13 36.7
2017-Jun-22 16:25 235 4 gusting 12 36.7
2017-Jun-22 16:20 236 4 gusting 20 36.1
2017-Jun-22 16:15 230 10 gusting 20 36.1
2017-Jun-22 16:10 172 12 gusting 15 36.7
2017-Jun-22 16:05 193 6 gusting 15 36.7
2017-Jun-22 16:00 227 11 gusting 14 36.7
2017-Jun-22 15:55 243 7 gusting 19 36.1
2017-Jun-22 15:50 261 6 gusting 19 36.7
2017-Jun-22 15:45 272 14 gusting 18 36.7
2017-Jun-22 15:40 271 8 gusting 18 36.7
2017-Jun-22 15:35 283 13 gusting 19 36.7
2017-Jun-22 15:30 292 6 gusting 19 37.2
2017-Jun-22 15:25 262 12 gusting 19 36.7
2017-Jun-22 15:20 252 6 gusting 19 36.7
2017-Jun-22 15:15 258 9 gusting 19 36.7
2017-Jun-22 15:10 284 9 gusting 13 37.2
2017-Jun-22 15:05 305 6 gusting 14 36.7
2017-Jun-22 15:00 293 6 gusting 14 36.1
2017-Jun-22 14:55 256 6 gusting 14 36.7
2017-Jun-22 14:50 243 7 gusting 14 36.7
2017-Jun-22 14:45 253 9 gusting 12 37.2
2017-Jun-22 14:40 296 1 gusting 10 37.2
2017-Jun-22 14:35 256 3 gusting 13 36.7
2017-Jun-22 14:30 261 7 gusting 14 36.1
2017-Jun-22 14:25 267 9 gusting 15 36.1
2017-Jun-22 14:20 256 6 gusting 15 36.1
2017-Jun-22 14:15 273 7 gusting 13 36.7
2017-Jun-22 14:10 269 6 gusting 11 36.7
2017-Jun-22 14:05 227 7 gusting 11 36.7
2017-Jun-22 14:00 273 0 gusting 16 36.1
2017-Jun-22 13:55 280 4 gusting 17 35.6
2017-Jun-22 13:50 262 12 gusting 17 36.1
2017-Jun-22 13:45 162 7 gusting 17 36.7
2017-Jun-22 13:40 303 1 gusting 8 36.7
2017-Jun-22 13:35 269 2 gusting 8 36.1
2017-Jun-22 13:30 263 5 gusting 8 35.6
2017-Jun-22 13:25 270 6 gusting 13 35.6
2017-Jun-22 13:20 266 4 gusting 13 35.6
2017-Jun-22 13:15 225 4 gusting 12 36.1
2017-Jun-22 13:10 223 3 gusting 12 35.6
2017-Jun-22 13:05 243 6 gusting 12 36.1
2017-Jun-22 13:00 248 4 gusting 13 35.6
2017-Jun-22 12:55 234 0 gusting 14 35.0
2017-Jun-22 12:50 235 9 gusting 14 35.0
2017-Jun-22 12:45 207 4 gusting 9 35.6
2017-Jun-22 12:40 194 4 gusting 9 35.0
2017-Jun-22 12:35 286 6 gusting 9 35.0
2017-Jun-22 12:30 295 3 gusting 10 35.0
2017-Jun-22 12:25 259 4 gusting 12 34.4
2017-Jun-22 12:20 223 6 gusting 12 34.4
2017-Jun-22 12:15 248 4 gusting 9 35.0
2017-Jun-22 12:10 270 2 gusting 9 34.4
2017-Jun-22 12:05 231 6 gusting 11 34.4
2017-Jun-22 12:00 234 6 gusting 11 34.4
2017-Jun-22 11:55 295 4 gusting 8 34.4
2017-Jun-22 11:50 032 0 gusting 6 33.9
2017-Jun-22 11:45 237 4 gusting 7 34.4
2017-Jun-22 11:40 253 2 gusting 9 33.9
2017-Jun-22 11:35 290 6 gusting 9 33.9
2017-Jun-22 11:30 358 1 gusting 5 33.9
2017-Jun-22 11:25 299 2 gusting 7 33.3
2017-Jun-22 11:20 273 4 gusting 7 33.3
2017-Jun-22 11:15 058 4 gusting 6 33.9
2017-Jun-22 11:10 048 1 gusting 6 32.8
2017-Jun-22 11:05 051 1 gusting 8 32.2
2017-Jun-22 11:00 072 1 gusting 8 32.8
2017-Jun-22 10:55 101 2 gusting 8 32.8
2017-Jun-22 10:50 109 2 gusting 8 32.2
2017-Jun-22 10:45 126 6 gusting 8 32.8
2017-Jun-22 10:40 101 2 gusting 6 32.8
2017-Jun-22 10:35 082 4 gusting 6 32.2
2017-Jun-22 10:30 081 2 gusting 6 32.2
2017-Jun-22 10:25 075 4 gusting 6 31.7
2017-Jun-22 10:20 078 1 gusting 7 31.7
2017-Jun-22 10:15 080 3 gusting 7 31.7
2017-Jun-22 10:10 062 5 gusting 7 31.7
2017-Jun-22 10:05 046 4 gusting 9 31.1
2017-Jun-22 10:00 040 4 gusting 9 31.1
2017-Jun-22 09:55 036 4 gusting 8 32.2
2017-Jun-22 09:50 052 1 gusting 6 32.2
2017-Jun-22 09:45 31.7
2017-Jun-22 09:40 345 4 gusting 6 32.2
2017-Jun-22 09:35 017 2 gusting 3 31.7
2017-Jun-22 09:30 057 0 gusting 6 30.6
2017-Jun-22 09:25 068 2 gusting 6 30.6
2017-Jun-22 09:20 084 5 gusting 6 30.6
2017-Jun-22 09:15 066 3 gusting 6 30.0
2017-Jun-22 09:10 056 3 gusting 6 29.4
2017-Jun-22 09:05 064 3 gusting 6 30.0
2017-Jun-22 09:00 056 2 gusting 6 29.4
2017-Jun-22 08:55 055 1 gusting 6 28.9
2017-Jun-22 08:50 054 2 gusting 7 28.9
2017-Jun-22 08:45 043 3 gusting 7 28.3
2017-Jun-22 08:40 055 3 gusting 6 28.9
2017-Jun-22 08:35 087 3 gusting 6 29.4
2017-Jun-22 08:30 088 4 gusting 6 30.0
2017-Jun-22 08:25 110 3 gusting 6 30.0
2017-Jun-22 08:20 166 0 gusting 3 30.6
2017-Jun-22 08:15 158 3 gusting 3 31.1
2017-Jun-22 08:10 30.6
2017-Jun-22 08:05 252 1 gusting 3 30.0
2017-Jun-22 08:00 233 0 gusting 3 29.4
2017-Jun-22 07:55 202 1 gusting 2 30.0
2017-Jun-22 07:50 156 1 gusting 6 29.4
2017-Jun-22 07:45 154 1 gusting 6 28.3
2017-Jun-22 07:40 087 3 gusting 5 28.9
2017-Jun-22 07:35 049 0 gusting 4 27.2
2017-Jun-22 07:30 058 3 gusting 4 27.8
2017-Jun-22 07:25 071 1 gusting 4 27.8
2017-Jun-22 07:20 27.8
2017-Jun-22 07:15 090 3 gusting 5 27.2
2017-Jun-22 07:10 077 3 gusting 5 27.2
2017-Jun-22 07:05 067 1 gusting 5 26.7
2017-Jun-22 07:00 076 2 gusting 5 26.7
2017-Jun-22 06:55 087 3 gusting 5 26.7
2017-Jun-22 06:50 074 1 gusting 5 26.7
2017-Jun-22 06:45 067 2 gusting 5 26.1
2017-Jun-22 06:40 066 2 gusting 5 26.1
2017-Jun-22 06:35 066 2 gusting 6 25.6
2017-Jun-22 06:30 070 3 gusting 7 25.6
2017-Jun-22 06:25 072 3 gusting 7 25.6
2017-Jun-22 06:20 080 6 gusting 7 25.6
2017-Jun-22 06:15 068 4 gusting 6 25.6
2017-Jun-22 06:10 046 3 gusting 6 25.0
2017-Jun-22 06:05 031 4 gusting 6 25.6
2017-Jun-22 06:00 022 3 gusting 5 25.6
2017-Jun-22 05:55 059 1 gusting 4 25.6
2017-Jun-22 05:50 081 0 gusting 4 25.6
2017-Jun-22 05:45 084 1 gusting 3 25.6
2017-Jun-22 05:40 093 1 gusting 3 25.0
2017-Jun-22 05:35 108 1 gusting 3 25.0
2017-Jun-22 05:30 106 1 gusting 3 24.4
2017-Jun-22 05:25 098 1 gusting 4 24.4
2017-Jun-22 05:20 101 2 gusting 5 24.4
2017-Jun-22 05:15 105 3 gusting 5 23.9
2017-Jun-22 05:10 101 2 gusting 6 23.9
2017-Jun-22 05:05 103 3 gusting 6 23.9
2017-Jun-22 05:00 100 5 gusting 6 24.4
2017-Jun-22 04:55 088 3 gusting 6 24.4
2017-Jun-22 04:50 084 4 gusting 6 24.4
2017-Jun-22 04:45 087 4 gusting 6 24.4
2017-Jun-22 04:40 092 4 gusting 6 24.4
2017-Jun-22 04:35 093 3 gusting 4 24.4
2017-Jun-22 04:30 084 2 gusting 4 24.4
2017-Jun-22 04:25 080 2 gusting 4 24.4
2017-Jun-22 04:20 087 2 gusting 4 24.4
2017-Jun-22 04:15 090 1 gusting 5 25.0
2017-Jun-22 04:10 083 2 gusting 5 25.0
2017-Jun-22 04:05 082 3 gusting 3 25.0
2017-Jun-22 04:00 091 2 gusting 4 25.0
2017-Jun-22 03:55 090 3 gusting 4 25.0
2017-Jun-22 03:50 086 2 gusting 3 25.0
2017-Jun-22 03:45 084 3 gusting 3 25.0
2017-Jun-22 03:40 085 2 gusting 4 25.0
2017-Jun-22 03:35 095 2 gusting 4 25.0
2017-Jun-22 03:30 092 1 gusting 3 25.6
2017-Jun-22 03:25 25.6
2017-Jun-22 03:20 090 1 gusting 3 25.6
2017-Jun-22 03:15 090 2 gusting 3 25.6
2017-Jun-22 03:10 095 1 gusting 4 25.6
2017-Jun-22 03:05 095 2 gusting 4 26.1
2017-Jun-22 03:00 090 3 gusting 4 26.1
2017-Jun-22 02:55 086 2 gusting 4 26.1
2017-Jun-22 02:50 117 1 gusting 4 26.1
2017-Jun-22 02:45 098 2 gusting 4 26.1
2017-Jun-22 02:40 26.7
2017-Jun-22 02:35 052 3 gusting 6 26.7
2017-Jun-22 02:30 043 2 gusting 6 26.7
2017-Jun-22 02:25 042 3 gusting 7 26.7
2017-Jun-22 02:20 065 5 gusting 7 26.7
2017-Jun-22 02:15 093 4 gusting 5 26.7
2017-Jun-22 02:10 091 1 gusting 5 26.7
2017-Jun-22 02:05 091 3 gusting 5 26.7
2017-Jun-22 02:00 095 3 gusting 4 26.7
2017-Jun-22 01:55 095 1 gusting 4 26.7
2017-Jun-22 01:50 26.7
2017-Jun-22 01:45 116 3 gusting 5 26.7
2017-Jun-22 01:40 107 3 gusting 5 26.7
2017-Jun-22 01:35 094 1 gusting 3 26.7
2017-Jun-22 01:30 113 1 gusting 1 26.7
2017-Jun-22 01:25 26.7
2017-Jun-22 01:20 125 1 gusting 4 26.7
2017-Jun-22 01:15 147 1 gusting 4 26.7
2017-Jun-22 01:10 159 3 gusting 4 26.7
2017-Jun-22 01:05 145 3 gusting 4 26.7
2017-Jun-22 01:00 162 1 gusting 6 27.2
2017-Jun-22 00:55 166 1 gusting 7 27.2
2017-Jun-22 00:50 150 0 gusting 8 27.2
2017-Jun-22 00:45 148 4 gusting 8 27.2
2017-Jun-22 00:40 159 3 gusting 5 27.2
2017-Jun-22 00:35 156 1 gusting 4 27.2
2017-Jun-22 00:30 134 1 gusting 3 27.2
2017-Jun-22 00:25 133 1 gusting 3 27.2
2017-Jun-22 00:20 149 2 gusting 3 27.2
2017-Jun-22 00:15 163 1 gusting 3 27.2
2017-Jun-22 00:10 170 0 gusting 1 27.2
2017-Jun-22 00:05 154 0 gusting 2 27.8
2017-Jun-22 00:00 126 0 gusting 2 27.8
2017-Jun-21 23:55 128 1 gusting 2 27.8
2017-Jun-21 23:50 138 0 gusting 1 27.8
2017-Jun-21 23:45 116 0 gusting 3 27.8
2017-Jun-21 23:40 094 0 gusting 3 27.8
2017-Jun-21 23:35 090 1 gusting 3 28.3
2017-Jun-21 23:30 095 2 gusting 3 28.3
2017-Jun-21 23:25 103 2 gusting 5 28.3
2017-Jun-21 23:20 103 1 gusting 6 28.3
2017-Jun-21 23:15 100 3 gusting 6 28.9
2017-Jun-21 23:10 088 3 gusting 6 28.9
2017-Jun-21 23:05 070 3 gusting 6 29.4
2017-Jun-21 23:00 072 3 gusting 5 29.4
2017-Jun-21 22:55 073 2 gusting 7 29.4
2017-Jun-21 22:50 076 2 gusting 13 29.4
2017-Jun-21 22:45 078 6 gusting 13 28.9
2017-Jun-21 22:40 082 4 gusting 6 28.9
2017-Jun-21 22:35 28.9
2017-Jun-21 22:30 29.4
2017-Jun-21 22:25 29.4
2017-Jun-21 22:20 198 0 gusting 1 29.4
2017-Jun-21 22:15 199 1 gusting 1 29.4
2017-Jun-21 22:10 181 0 gusting 1 29.4
2017-Jun-21 22:05 181 0 gusting 1 30.0
2017-Jun-21 22:00 176 0 gusting 1 30.0
2017-Jun-21 21:55 183 0 gusting 1 30.0
2017-Jun-21 21:50 188 0 gusting 1 30.0
2017-Jun-21 21:45 182 0 gusting 1 30.0
2017-Jun-21 21:40 30.0
2017-Jun-21 21:35 30.0
2017-Jun-21 21:30 30.6
2017-Jun-21 21:25 30.6
2017-Jun-21 21:20 30.6
2017-Jun-21 21:15 31.1
2017-Jun-21 21:10 31.1
2017-Jun-21 21:05 31.7
2017-Jun-21 21:00 089 1 gusting 3 31.7
2017-Jun-21 20:55 089 1 gusting 3 31.7
2017-Jun-21 20:50 101 1 gusting 3 31.7
2017-Jun-21 20:45 112 1 gusting 3 31.7
2017-Jun-21 20:40 080 1 gusting 2 31.7
2017-Jun-21 20:35 32.2
2017-Jun-21 20:30 32.2
2017-Jun-21 20:25 017 1 gusting 3 32.2
2017-Jun-21 20:20 002 1 gusting 3 32.2
2017-Jun-21 20:15 32.2
2017-Jun-21 20:10 32.8
2017-Jun-21 20:05 072 0 gusting 1 32.8
2017-Jun-21 20:00 338 0 gusting 2 32.8
2017-Jun-21 19:55 346 0 gusting 2 32.8
2017-Jun-21 19:50 344 1 gusting 3 33.3
2017-Jun-21 19:45 348 0 gusting 3 33.3
2017-Jun-21 19:40 345 1 gusting 4 33.3
2017-Jun-21 19:35 348 2 gusting 5 33.3
2017-Jun-21 19:30 349 2 gusting 5 33.9
2017-Jun-21 19:25 002 1 gusting 5 33.9
2017-Jun-21 19:20 010 2 gusting 5 33.9
2017-Jun-21 19:15 024 2 gusting 6 33.9
2017-Jun-21 19:10 040 1 gusting 8 33.9
2017-Jun-21 19:05 041 6 gusting 8 34.4
2017-Jun-21 19:00 034 4 gusting 6 34.4
2017-Jun-21 18:55 014 4 gusting 6 34.4
2017-Jun-21 18:50 008 4 gusting 6 34.4
2017-Jun-21 18:45 003 4 gusting 6 35.0
2017-Jun-21 18:40 348 3 gusting 6 35.0
2017-Jun-21 18:35 352 3 gusting 6 35.0
2017-Jun-21 18:30 351 5 gusting 6 35.6
2017-Jun-21 18:25 337 3 gusting 5 35.6
2017-Jun-21 18:20 271 3 gusting 5 36.1
2017-Jun-21 18:15 301 1 gusting 7 36.1
2017-Jun-21 18:10 355 3 gusting 7 36.1
2017-Jun-21 18:05 351 3 gusting 9 35.6
2017-Jun-21 18:00 338 6 gusting 9 35.6
2017-Jun-21 17:55 349 7 gusting 9 35.6
2017-Jun-21 17:50 350 6 gusting 9 35.6
2017-Jun-21 17:45 335 6 gusting 9 35.0
2017-Jun-21 17:40 324 6 gusting 9 35.0
2017-Jun-21 17:35 304 5 gusting 8 35.0
2017-Jun-21 17:30 314 2 gusting 8 35.0
2017-Jun-21 17:25 329 6 gusting 8 35.6
2017-Jun-21 17:20 328 6 gusting 8 35.6
2017-Jun-21 17:15 300 6 gusting 9 35.0
2017-Jun-21 17:10 258 2 gusting 12 35.0
2017-Jun-21 17:05 276 6 gusting 13 35.0
2017-Jun-21 17:00 293 9 gusting 14 35.0
2017-Jun-21 16:55 273 6 gusting 14 35.6
2017-Jun-21 16:50 247 6 gusting 13 36.1
2017-Jun-21 16:45 238 5 gusting 7 36.7
2017-Jun-21 16:40 259 6 gusting 7 36.7
2017-Jun-21 16:35 227 3 gusting 9 36.1
2017-Jun-21 16:30 216 3 gusting 9 36.1
2017-Jun-21 16:25 227 3 gusting 12 36.1
2017-Jun-21 16:20 275 5 gusting 14 35.6
2017-Jun-21 16:15 297 9 gusting 14 36.1
2017-Jun-21 16:10 322 4 gusting 6 36.1
2017-Jun-21 16:05 354 1 gusting 9 35.6
2017-Jun-21 16:00 283 3 gusting 9 35.6
2017-Jun-21 15:55 285 6 gusting 9 35.6
2017-Jun-21 15:50 313 2 gusting 6 35.6
2017-Jun-21 15:45 285 5 gusting 8 36.1
2017-Jun-21 15:40 235 3 gusting 8 36.1
2017-Jun-21 15:35 234 3 gusting 10 36.1
2017-Jun-21 15:30 231 3 gusting 10 36.1
2017-Jun-21 15:25 218 8 gusting 13 36.7
2017-Jun-21 15:20 161 8 gusting 13 37.2
2017-Jun-21 15:15 111 6 gusting 7 36.7
2017-Jun-21 15:10 135 1 gusting 7 37.2
2017-Jun-21 15:05 162 3 gusting 9 37.8
2017-Jun-21 15:00 162 4 gusting 9 36.7